When you browse on this site, cookies collect data to enhance your experience and personalize the content and advertising you see.
Visit our Privacy Policy to learn more. By continuing to use the site, you agree to this use of cookies and data.
  • In Italy
  • List of Countries
  • For 7 days
  • Water Temperature
  • Satellite Maps
  • Weather Map
  • Weather Widgets
  • user-avatar
    Login

    Hourly Weather Orsha

    Today, 20 March, Wednesday

    Time Temperature Precipitation Wind Pressure Humidity
    00:00 +1°C° 0 mm 3 mps 750 mmHg 82%
    01:00 0°C° 0 mm 3 mps 750 mmHg 84%
    02:00 -1°C° 0 mm 2 mps 751 mmHg 87%
    03:00 -1°C° 0 mm 2 mps 751 mmHg 89%
    04:00 -1°C° 0 mm 2 mps 751 mmHg 90%
    05:00 -1°C° 0 mm 2 mps 751 mmHg 92%
    06:00 -1°C° 0 mm 3 mps 751 mmHg 89%
    07:00 0°C° 0 mm 3 mps 752 mmHg 87%
    08:00 0°C° 0 mm 3 mps 752 mmHg 83%
    09:00 +1°C° 0 mm 3 mps 752 mmHg 77%
    10:00 +2°C° 0 mm 3 mps 752 mmHg 71%
    11:00 +1°C° 0 mm 4 mps 752 mmHg 66%
    12:00 +1°C° 0 mm 4 mps 753 mmHg 65%
    13:00 +3°C° 0 mm 4 mps 753 mmHg 63%
    14:00 +3°C° 0 mm 4 mps 753 mmHg 60%
    15:00 +3°C° 0 mm 4 mps 753 mmHg 61%
    16:00 +1°C° 0 mm 4 mps 753 mmHg 62%
    17:00 +1°C° 0 mm 4 mps 753 mmHg 64%
    18:00 +2°C° 0 mm 3 mps 753 mmHg 66%
    19:00 +1°C° 0 mm 3 mps 753 mmHg 69%
    20:00 +1°C° 0 mm 3 mps 753 mmHg 71%
    21:00 +1°C° 0 mm 3 mps 752 mmHg 71%
    22:00 +1°C° 0 mm 3 mps 752 mmHg 71%
    23:00 0°C° 0 mm 4 mps 752 mmHg 71%

    Tomorrow, 21 March, Thursday

    Time Temperature Precipitation Wind Pressure Humidity
    00:00 0°C° 0.1 mm 4 mps 751 mmHg 72%
    01:00 0°C° 0.1 mm 5 mps 750 mmHg 72%
    02:00 0°C° 0.1 mm 5 mps 750 mmHg 73%
    03:00 -1°C° 0.4 mm 6 mps 750 mmHg 77%
    04:00 -1°C° 0.4 mm 6 mps 749 mmHg 80%
    05:00 -1°C° 0.4 mm 6 mps 749 mmHg 83%
    06:00 -1°C° 0 mm 6 mps 749 mmHg 85%
    07:00 +1°C° 0 mm 6 mps 749 mmHg 86%
    08:00 +1°C° 0 mm 5 mps 750 mmHg 87%
    09:00 +2°C° 0 mm 6 mps 750 mmHg 82%
    10:00 +3°C° 0 mm 6 mps 750 mmHg 76%
    11:00 +4°C° 0 mm 6 mps 751 mmHg 70%
    12:00 +5°C° 0 mm 6 mps 751 mmHg 67%
    13:00 +7°C° 0 mm 6 mps 751 mmHg 63%
    14:00 +7°C° 0 mm 6 mps 751 mmHg 59%
    15:00 +7°C° 0 mm 5 mps 751 mmHg 61%
    16:00 +7°C° 0 mm 4 mps 750 mmHg 63%
    17:00 +7°C° 0 mm 3 mps 750 mmHg 64%
    18:00 +7°C° 0 mm 3 mps 750 mmHg 68%
    19:00 +5°C° 0 mm 3 mps 750 mmHg 73%
    20:00 +4°C° 0 mm 3 mps 750 mmHg 77%
    21:00 +4°C° 0.1 mm 3 mps 750 mmHg 80%
    22:00 +4°C° 0.1 mm 3 mps 749 mmHg 82%
    23:00 +4°C° 0.1 mm 4 mps 749 mmHg 85%

    Day after tomorrow, 22 March, Friday

    Time Temperature Precipitation Wind Pressure Humidity
    00:00 +4°C° 0.4 mm 4 mps 749 mmHg 87%
    01:00 +4°C° 0.4 mm 4 mps 748 mmHg 89%
    02:00 +3°C° 0.4 mm 5 mps 748 mmHg 91%
    03:00 +3°C° 1 mm 5 mps 747 mmHg 92%
    04:00 +5°C° 1 mm 5 mps 746 mmHg 93%
    05:00 +5°C° 1 mm 5 mps 746 mmHg 94%
    06:00 +4°C° 0.2 mm 6 mps 746 mmHg 92%
    07:00 +5°C° 0.2 mm 7 mps 746 mmHg 90%
    08:00 +5°C° 0.2 mm 7 mps 746 mmHg 88%
    09:00 +6°C° 0 mm 8 mps 747 mmHg 77%
    10:00 +6°C° 0 mm 9 mps 747 mmHg 67%
    11:00 +7°C° 0 mm 11 mps 748 mmHg 56%
    12:00 +6°C° 0 mm 10 mps 748 mmHg 51%
    13:00 +5°C° 0 mm 10 mps 748 mmHg 46%
    14:00 +5°C° 0 mm 10 mps 749 mmHg 41%
    15:00 +3°C° 0 mm 9 mps 749 mmHg 42%
    16:00 +4°C° 0 mm 8 mps 749 mmHg 44%
    17:00 +2°C° 0 mm 8 mps 749 mmHg 45%
    18:00 +2°C° 0 mm 7 mps 750 mmHg 50%
    19:00 +1°C° 0 mm 6 mps 750 mmHg 54%
    20:00 -1°C° 0 mm 6 mps 750 mmHg 58%
    21:00 -1°C° 0 mm 6 mps 751 mmHg 60%
    22:00 -1°C° 0 mm 6 mps 751 mmHg 61%
    23:00 -2°C° 0 mm 6 mps 751 mmHg 63%

    23 March, Saturday

    Time Temperature Precipitation Wind Pressure Humidity
    00:00 -2°C° 0 mm 6 mps 751 mmHg 65%
    01:00 -3°C° 0 mm 6 mps 751 mmHg 67%
    02:00 -2°C° 0 mm 5 mps 751 mmHg 69%
    03:00 -2°C° 0 mm 5 mps 751 mmHg 71%
    04:00 -4°C° 0 mm 5 mps 751 mmHg 73%
    05:00 -4°C° 0 mm 5 mps 751 mmHg 75%
    06:00 -2°C° 0 mm 5 mps 751 mmHg 73%
    07:00 -2°C° 0 mm 5 mps 751 mmHg 71%
    08:00 -1°C° 0 mm 4 mps 752 mmHg 69%
    09:00 0°C° 0 mm 4 mps 752 mmHg 65%
    10:00 +1°C° 0 mm 4 mps 752 mmHg 60%
    11:00 +3°C° 0 mm 3 mps 752 mmHg 56%
    12:00 +4°C° 0 mm 3 mps 751 mmHg 52%
    13:00 +5°C° 0 mm 3 mps 751 mmHg 48%
    14:00 +7°C° 0 mm 2 mps 750 mmHg 45%
    15:00 +7°C° 0 mm 2 mps 750 mmHg 47%
    16:00 +7°C° 0 mm 2 mps 750 mmHg 49%
    17:00 +7°C° 0 mm 2 mps 749 mmHg 51%
    18:00 +6°C° 0 mm 2 mps 749 mmHg 53%
    19:00 +5°C° 0 mm 3 mps 749 mmHg 55%
    20:00 +4°C° 0 mm 3 mps 748 mmHg 56%
    21:00 +4°C° 0.5 mm 4 mps 748 mmHg 67%
    22:00 +4°C° 0.5 mm 4 mps 747 mmHg 78%
    23:00 +4°C° 0.5 mm 4 mps 747 mmHg 88%

    24 March, Sunday

    Time Temperature Precipitation Wind Pressure Humidity
    00:00 +5°C° 0.2 mm 5 mps 747 mmHg 90%
    01:00 +5°C° 0.2 mm 5 mps 747 mmHg 91%
    02:00 +5°C° 0.2 mm 5 mps 747 mmHg 92%
    03:00 +3°C° 0 mm 5 mps 747 mmHg 90%
    04:00 +1°C° 0 mm 5 mps 747 mmHg 87%
    05:00 0°C° 0 mm 5 mps 747 mmHg 85%
    06:00 0°C° 0 mm 5 mps 748 mmHg 81%
    07:00 0°C° 0 mm 5 mps 748 mmHg 77%
    08:00 +1°C° 0 mm 5 mps 748 mmHg 72%
    09:00 +2°C° 0 mm 6 mps 749 mmHg 64%
    10:00 +3°C° 0 mm 6 mps 749 mmHg 56%
    11:00 +4°C° 0 mm 7 mps 749 mmHg 48%
    12:00 +5°C° 0 mm 7 mps 749 mmHg 46%
    13:00 +5°C° 0 mm 7 mps 749 mmHg 44%
    14:00 +5°C° 0 mm 7 mps 749 mmHg 42%
    15:00 +5°C° 0 mm 7 mps 749 mmHg 44%
    16:00 +4°C° 0 mm 6 mps 749 mmHg 46%
    17:00 +5°C° 0 mm 5 mps 749 mmHg 48%
    18:00 +4°C° 0 mm 4 mps 749 mmHg 53%
    19:00 +2°C° 0 mm 3 mps 749 mmHg 58%
    20:00 +1°C° 0 mm 3 mps 750 mmHg 63%
    21:00 +2°C° 0 mm 2 mps 750 mmHg 65%
    22:00 +2°C° 0 mm 1 mps 750 mmHg 66%
    23:00 +1°C° 0 mm 1 mps 749 mmHg 68%

    25 March, Monday

    Time Temperature Precipitation Wind Pressure Humidity
    00:00 +1°C° 0 mm 1 mps 749 mmHg 67%
    01:00 +1°C° 0 mm 1 mps 749 mmHg 67%
    02:00 0°C° 0 mm 0 mps 749 mmHg 67%
    03:00 +1°C° 0 mm 1 mps 748 mmHg 67%
    04:00 -1°C° 0 mm 2 mps 748 mmHg 68%
    05:00 -1°C° 0 mm 2 mps 747 mmHg 69%
    06:00 -1°C° 0 mm 3 mps 747 mmHg 65%
    07:00 -1°C° 0 mm 4 mps 746 mmHg 62%
    08:00 0°C° 0 mm 5 mps 745 mmHg 58%
    09:00 +1°C° 0 mm 6 mps 744 mmHg 55%
    10:00 +2°C° 0 mm 6 mps 744 mmHg 52%
    11:00 +4°C° 0 mm 7 mps 743 mmHg 49%
    12:00 +4°C° 0.1 mm 7 mps 742 mmHg 52%
    13:00 +4°C° 0.1 mm 7 mps 741 mmHg 54%
    14:00 +4°C° 0.1 mm 7 mps 740 mmHg 57%
    15:00 +4°C° 0.1 mm 7 mps 739 mmHg 59%
    16:00 +4°C° 0.1 mm 7 mps 737 mmHg 61%
    17:00 +4°C° 0.1 mm 7 mps 736 mmHg 63%
    18:00 +3°C° 0.9 mm 6 mps 736 mmHg 68%
    19:00 +3°C° 0.9 mm 6 mps 735 mmHg 74%
    20:00 +2°C° 0.9 mm 6 mps 734 mmHg 79%
    21:00 +1°C° 0.4 mm 6 mps 734 mmHg 79%
    22:00 +1°C° 0.4 mm 5 mps 733 mmHg 78%
    23:00 0°C° 0.4 mm 4 mps 733 mmHg 78%
    Show more